Location: El Álamo
(40.2307°N, 3.9945°W)
Time: 03:58:51
(UTC+00:00)

ATLAS 3B R/B - Pass Details

Date: 19 May 2025
Orbit: 935 x 1258 km, 63.8° (Epoch: 23 June)

Event Time Altitude Azimuth Distance (km) Brightness Sun altitude
Exits shadow 23:17:19 60° 206° (SSW) 1,335 2.9 -28.4°
Maximum altitude 23:18:55 87° 122° (ESE) 1,199 2.8 -28.5°
Drops below altitude 10° 23:26:42 10° 34° (NE) 3,213 5.7 -28.8°
Sets 23:29:33 0° 35° (NE) 4,202 6.4 -29.0°
